sat.trackr.live / text

‹ back to catalog

STARLINK-37624

NORAD 69833 · 2026-154Q

PAYLOAD ACTIVE UNKNOWN

§ Identity

Operator
Country
US
Launch date
2026-07-05
Launch site
AFETR
Launch vehicle
Mass (kg)
RCS (m²)

Purposes: comms

External: N2YO · Heavens-Above · Gunter

§ Orbital elements

Epoch: 2026-09-20T04:50:35.209824Z

Period
93.85 min
Inclination
53.1566°
Eccentricity
0.0002292
Mean motion
15.34405763 rev/d
Perigee alt
461.1 km
Apogee alt
464.3 km
Semi-major
6,840.8 km
B*
3.8123e-4
RAAN
333.0300°
Arg perigee
104.4599°
Mean anomaly
255.6658°
Rev number
1,319

§ Raw data

STARLINK-376241 69833U 26154Q   26263.20179641  .00012528  00000+0  38123-3 0  99932 69833  53.1566 333.0300 0002292 104.4599 255.6658 15.34405763 13195

JSON: /api/v1/satellites/69833 · /tle

For live sub-satellite position, see the globe view (requires WebGL).

§ Visibility from observer

Set your observer location to see the next 7 days of passes ≥ 10°. The values pass through the URL so the page stays shareable.

No JS? Fill the form by hand. The geolocation button needs JavaScript.